Location: Cadeilhan
(42.8161°N, 0.3161°E)
Time: 16:59:04
(UTC+00:00)

Cosmos 1000 Rocket - Pass Details

Date: 18 February 2020
Orbit: 954 x 991 km, 82.9° (Epoch: 29 March)

Event Time Altitude Azimuth Distance (km) Brightness Sun altitude
Rises 05:28:28 0° 188° (S) 3,621 7.4 -16.1°
Reaches altitude 10° 05:30:56 10° 189° (S) 2,683 6.7 -15.6°
Maximum altitude 05:37:05 84° 277° (W) 975 4.4 -14.5°
Drops below altitude 10° 05:43:20 10° 6° (N) 2,724 6.9 -13.3°
Sets 05:45:52 0° 8° (N) 3,681 7.6 -12.9°
